DW6233 Weather Reports


Display with metric or nautical units.
time (UTC)temp
F
wind
direction
speed
MPH
gust
MPH
rain 1hr
in
rain 24hr
in
rain mn
in
humidity
%
barometer
mb
20260903041503 58 339 24.0 35.0 0.00 0.00 0.00 87 1013.3
20260903040050 58 2 24.0 38.0 0.00 0.00 0.00 85 1013.1
20260903034546 58 343 27.0 41.0 0.00 0.00 0.00 84 1013.0
20260903033045 59 355 30.0 39.0 0.00 0.00 0.00 83 1013.2
20260903031543 59 6 23.0 42.0 0.00 0.00 0.00 82 1013.5
20260903030041 59 332 17.0 28.0 0.00 0.00 0.00 83 1013.9
20260903024540 59 346 21.0 40.0 0.00 0.00 0.00 83 1014.0
20260903023052 59 13 22.0 35.0 0.00 0.00 0.00 83 1014.0
20260903021541 59 36 19.0 33.0 0.00 0.00 0.00 83 1014.1
20260903020040 59 7 25.0 38.0 0.00 0.00 0.00 83 1014.2
20260903014546 59 342 25.0 36.0 0.00 0.00 0.00 83 1014.3
20260903013047 59 358 26.0 38.0 0.00 0.00 0.00 82 1014.5
20260903011540 59 6 25.0 39.0 0.00 0.00 0.00 83 1014.7
20260903010045 59 350 24.0 37.0 0.00 0.00 0.00 82 1015.0
20260903004540 59 22 24.0 38.0 0.00 0.00 0.00 81 1015.0
20260903003039 59 25 22.0 32.0 0.00 0.00 0.00 81 1015.5
20260903001536 59 357 20.0 35.0 0.00 0.00 0.00 82 1015.6
20260903000035 59 360 19.0 32.0 0.00 0.00 0.00 82 1015.6
20260902234549 58 21 24.0 33.0 0.00 0.00 0.00 83 1015.7
20260902233037 58 345 17.0 26.0 0.00 0.00 0.00 84 1015.7
20260902231541 58 5 18.0 31.0 0.00 0.00 0.00 84 1015.6
20260902230030 58 351 18.0 30.0 0.00 0.00 0.00 85 1015.5
20260902224530 58 344 15.0 31.0 0.00 0.00 0.00 85 1015.7
20260902223028 58 342 14.0 25.0 0.00 0.00 0.00 83 1015.8
20260902221527 58 6 14.0 22.0 0.00 0.00 0.00 84 1015.9
20260902214519 58 5 15.0 26.0 0.00 0.00 0.00 86 1015.8
20260902213016 57 355 16.0 28.0 0.00 0.00 0.00 86 1015.8
20260902210059 57 356 19.0 28.0 0.00 0.00 0.00 87 1015.9
20260902203005 57 353 17.0 28.0 0.00 0.00 0.00 88 1015.8
20260902201555 57 337 19.0 33.0 0.00 0.00 0.00 88 1015.6
20260902200056 57 358 17.0 28.0 0.00 0.00 0.00 89 1015.7
20260902193010 56 353 19.0 30.0 0.00 0.00 0.00 89 1015.4
20260902190027 56 351 21.0 30.0 0.00 0.00 0.00 89 1015.2
20260902184504 56 8 23.0 33.0 0.00 0.00 0.00 89 1015.1
20260902181505 56 24 16.0 21.0 0.00 0.00 0.00 89 1015.3
20260902180052 56 29 14.0 25.0 0.00 0.00 0.00 89 1015.4
20260902174539 56 360 19.0 31.0 0.00 0.00 0.00 89 1015.3
20260902173033 56 12 15.0 30.0 0.00 0.00 0.00 89 1015.3
20260902171518 56 15 14.0 25.0 0.00 0.00 0.00 89 1015.0
20260902170042 56 359 17.0 27.0 0.00 0.00 0.00 89 1014.8
20260902164525 56 352 19.0 26.0 0.00 0.00 0.00 89 1014.8
20260902163033 56 7 16.0 25.0 0.00 0.00 0.00 89 1014.7
20260902160025 56 15 17.0 26.0 0.00 0.00 0.00 89 1014.6
20260902154531 56 9 14.0 22.0 0.00 0.00 0.00 89 1014.4
20260902153023 56 20 14.0 35.0 0.00 0.00 0.00 89 1014.4
20260902151623 56 12 24.0 35.0 0.00 0.00 0.00 89 1014.1
20260902150002 56 8 18.0 28.0 0.00 0.00 0.00 89 1014.4
20260902144518 56 353 19.0 30.0 0.00 0.00 0.00 88 1014.5
20260902143102 56 7 20.0 32.0 0.00 0.00 0.00 88 1014.7
20260902141600 56 356 24.0 34.0 0.00 0.00 0.00 88 1014.9
20260902140058 56 337 21.0 33.0 0.00 0.00 0.00 88 1014.9
20260902134600 56 351 22.0 38.0 0.00 0.00 0.00 88 1014.9
20260902133051 57 345 19.0 32.0 0.00 0.00 0.00 87 1014.9
20260902131502 56 351 18.0 31.0 0.00 0.00 0.00 88 1015.0
20260902130100 56 339 18.0 31.0 0.00 0.00 0.00 88 1014.4
20260902124608 56 323 18.0 29.0 0.00 0.00 0.00 88 1014.6
20260902123101 56 332 18.0 31.0 0.00 0.00 0.00 88 1014.2
20260902121531 56 357 19.0 30.0 0.00 0.00 0.00 88 1013.9
20260902120028 56 331 15.0 29.0 0.00 0.00 0.00 88 1014.1
20260902113047 56 309 13.0 35.0 0.00 0.00 0.00 87 1014.3
20260902111519 56 322 25.0 34.0 0.00 0.00 0.00 87 1014.0
20260902110037 56 329 19.0 34.0 0.00 0.00 0.00 87 1014.5
20260902104536 56 335 19.0 37.0 0.00 0.00 0.00 87 1014.7
20260902103024 56 337 21.0 33.0 0.00 0.00 0.00 87 1014.1
20260902100031 56 24 12.0 24.0 0.00 0.00 0.00 87 1015.1
20260902094536 56 334 12.0 27.0 0.00 0.00 0.00 87 1014.7
20260902091520 56 326 20.0 26.0 0.00 0.00 0.00 85 1013.9
20260902090051 56 10 14.0 25.0 0.00 0.00 0.00 83 1014.0
20260902084541 57 69 5.0 17.0 0.00 0.00 0.00 80 1014.2
20260902083029 56 17 17.0 28.0 0.00 0.00 0.00 84 1014.5
20260902081533 56 333 24.0 35.0 0.00 0.00 0.00 86 1014.3
20260902074528 56 301 16.0 26.0 0.00 0.00 0.00 87 1014.2
20260902073047 56 325 15.0 28.0 0.00 0.00 0.00 86 1014.0
20260902071509 56 348 22.0 37.0 0.00 0.00 0.00 87 1013.7
20260902070017 56 12 23.0 41.0 0.00 0.00 0.00 87 1013.3
20260902064525 56 331 18.0 30.0 0.00 0.00 0.00 86 1013.6
20260902063022 56 326 19.0 38.0 0.00 0.00 0.00 86 1013.9
20260902061555 56 351 24.0 37.0 0.00 0.00 0.00 84 1013.4
20260902060100 56 23 26.0 39.0 0.00 0.00 0.00 83 1013.4
20260902054539 57 348 26.0 44.0 0.00 0.00 0.00 81 1013.3
20260902053032 57 343 20.0 45.0 0.00 0.00 0.00 80 1013.4
20260902051531 57 354 26.0 49.0 0.00 0.00 0.00 80 1013.5
20260902050027 57 4 29.0 40.0 0.00 0.00 0.00 82 1013.1
20260902044600 56 343 24.0 43.0 0.00 0.00 0.00 83 1013.4
20260902043005 56 12 27.0 38.0 0.00 0.00 0.00 83 1013.4